Volver al catálogo

CZ-6A DEB

ActivoSSO
NORAD 56260·DEBRIS·🇨🇳 China

Lanzado Nov 11, 2022 desde Taiyuan Satellite Launch Center

Loading…

Próximos Pases (próximas 24 horas)

TLE

ActualizadoSource: Space-Track

Época: Sep 14, 2026, 06:54 UTC

1 56260U 22151ACC 26257.28786631  .00000391  00000-0  18351-3 0  9997
2 56260  98.7421 279.5389 0044905  88.0687 272.5634 14.25079175181262

Sigue CZ-6A DEB en tiempo real con AllMySat

Download on the App Store